Weather History for Fullerton, CA

Change the Weather History Date:

Thursday, January 17, 2013

  Actual Average Record
Temperature  
Mean Temperature 63 °F 56 °F  
Max Temperature 83 °F 68 °F 88 °F (2014)
Min Temperature 43 °F 45 °F 35 °F (2001)
Degree Days  
Heating Degree Days 2 9  
Month to date heating degree days 187 153  
Since 1 July heating degree days 446 593  
Cooling Degree Days 0 0  
Month to date cooling degree days 0 0  
Year to date cooling degree days 0 0  
Growing Degree Days 14 (Base 50)    
Moisture  
Dew Point 23 °F    
Average Humidity 34    
Maximum Humidity 60    
Minimum Humidity 7    
Precipitation  
Precipitation 0.00 in 0.10 in 0.23 in (2010)
Month to date precipitation 0.04 1.83  
Year to date precipitation 0.04 1.83  
Since 1 July precipitation 3.35 6.06  
Snow  
Snow 0.00 in - - ()
Month to date snowfall 0.0  
Year to date snowfall 0.0  
Since 1 July snowfall 0.0  
Snow Depth 0.00 in    
Sea Level Pressure  
Sea Level Pressure 30.10 in    
Wind  
Wind Speed 4 mph (ENE)    
Max Wind Speed 20 mph    
Max Gust Speed 25 mph    
Visibility 10 miles    
Events      
T = Trace of Precipitation, MM = Missing Value Source: NWS Daily Summary

Daily Weather History Graph

Daily Weather History Graph

Search for Another Location

Airport:

Trip Planner

Search our weather history database for the weather conditions in past years. The results will help you decide how hot, cold, wet, or windy it might be!

Date:

Astronomy

Jan. 17, 2013 Rise Set
Actual Time 6:56 AM PST 5:08 PM PST
Civil Twilight 6:29 AM PST 5:35 PM PST
Nautical Twilight 5:58 AM PST 6:05 PM PST
Astronomical Twilight 5:28 AM PST 6:35 PM PST
Moon 10:26 AM PST (1/17) 11:42 PM PST (1/17)
Length of Visible Light 11h 06m
Length of Day
10h 12m
Waxing Crescent, 39% of the Moon is Illuminated
Jan 17
Waxing Crescent
Jan 18
First Quarter
Jan 26
Full
Feb 3
Last Quarter
Feb 9
New

Hourly Weather History & Observations

Time (PST) Temp. Windchill Dew Point Humidity Pressure Visibility Wind Dir Wind Speed Gust Speed Precip Events Conditions
12:53 AM 46.9 °F - 33.1 °F 59% 30.12 in 10.0 mi Calm Calm - N/A   Clear
1:53 AM 46.9 °F - 30.9 °F 54% 30.12 in 10.0 mi NW 3.5 mph - N/A   Clear
2:53 AM 46.9 °F - 30.0 °F 52% 30.12 in 10.0 mi Calm Calm - N/A   Clear
3:53 AM 45.0 °F - 30.9 °F 58% 30.11 in 10.0 mi Calm Calm - N/A   Clear
4:53 AM 45.0 °F 43.5 °F 28.9 °F 53% 30.12 in 10.0 mi East 3.5 mph - N/A   Clear
5:53 AM 45.0 °F - 30.9 °F 58% 30.11 in 10.0 mi Calm Calm - N/A   Clear
6:53 AM 46.9 °F - 28.0 °F 48% 30.13 in 10.0 mi Calm Calm - N/A   Clear
7:53 AM 50.0 °F - 32.0 °F 50% 30.14 in 10.0 mi Calm Calm - N/A   Clear
8:53 AM 66.9 °F - 21.0 °F 17% 30.15 in 10.0 mi Variable 4.6 mph - N/A   Clear
9:53 AM 71.1 °F - 30.0 °F 22% 30.16 in 10.0 mi Calm Calm - N/A   Clear
10:53 AM 78.1 °F - 25.0 °F 14% 30.13 in 10.0 mi Variable 3.5 mph - N/A   Clear
11:53 AM 80.1 °F - 15.1 °F 9% 30.09 in 10.0 mi East 6.9 mph - N/A   Clear
12:53 PM 82.0 °F - 16.0 °F 8% 30.06 in 10.0 mi East 9.2 mph - N/A   Clear
1:53 PM 82.0 °F - 12.9 °F 7% 30.04 in 10.0 mi East 15.0 mph 23.0 mph N/A   Clear
2:53 PM 82.0 °F - 14.0 °F 8% 30.04 in 10.0 mi East 15.0 mph - N/A   Clear
3:53 PM 80.1 °F - 12.9 °F 8% 30.05 in 10.0 mi East 10.4 mph - N/A   Clear
4:53 PM 75.9 °F - 15.1 °F 10% 30.06 in 10.0 mi East 8.1 mph - N/A   Clear
5:53 PM 71.1 °F - 16.0 °F 12% 30.08 in 10.0 mi Calm Calm - N/A   Clear
6:53 PM 69.1 °F - 16.0 °F 13% 30.09 in 10.0 mi Calm Calm - N/A   Clear
7:53 PM 63.0 °F - 21.0 °F 20% 30.10 in 10.0 mi NNE 3.5 mph - N/A   Clear
8:53 PM 64.9 °F - 18.0 °F 16% 30.10 in 10.0 mi NE 4.6 mph - N/A   Clear
9:53 PM 60.1 °F - 19.0 °F 20% 30.11 in 10.0 mi Calm Calm - N/A   Clear
10:53 PM 57.9 °F - 23.0 °F 26% 30.11 in 10.0 mi North 3.5 mph - N/A   Clear
11:53 PM 53.1 °F - 27.0 °F 37% 30.12 in 10.0 mi Calm Calm - N/A   Clear